Regional Weather Roundup
Issued by NWS Raleigh/Durham, NC

Home | Current Version | Previous Version | Text Only | Print | Product List | Glossary On
Versions: 1 2 3 4 5 6 7 8 9 10 11 12 13 14 15 16 17 18 19 20 21 22 23 24 25 26 27 28 29 30 31 32 33 34 35 36 37 38 39 40 41 42 43 44 45 46 47 48 49 50
000
ASUS42 KRAH 060310
RWRRAH
NORTH CAROLINA WEATHER ROUNDUP
NATIONAL WEATHER SERVICE RALEIGH NC
1100 PM EDT SUN JUL 05 2015

NOTE: "FAIR" INDICATES FEW OR NO CLOUDS BELOW 12,000 FEET WITH NO
SIGNIFICANT WEATHER AND/OR OBSTRUCTIONS TO VISIBILITY.

NCZ001-053-055-056-065-067-060400-
WESTERN NORTH CAROLINA

CITY           SKY/WX    TMP DP  RH WIND       PRES   REMARKS
ASHEVILLE      MOCLDY    68  64  87 NW7       30.16R
JEFFERSON      CLOUDY    65  65 100 CALM      30.17R
MORGANTON      MOCLDY    69  66  90 CALM      30.14R
HICKORY        PTCLDY    73  65  75 S8        30.09R
RUTHERFORDTON  NOT AVBL
MOUNT AIRY     RAIN      73  70  91 SE6       30.12R
BOONE          PTCLDY    65  63  91 CALM      30.18R
$$

NCZ021-022-025-041-071-084-088-060400-
CENTRAL NORTH CAROLINA

CITY           SKY/WX    TMP DP  RH WIND       PRES   REMARKS
CHARLOTTE      CLOUDY    73  68  84 S9        30.10R
GREENSBORO     MOCLDY    72  71  97 SE7       30.09F
WINSTON-SALEM  MOCLDY    73  69  87 SE3       30.10S
RALEIGH-DURHAM CLOUDY    70  68  93 E5        30.12S
FORT BRAGG     NOT AVBL
FAYETTEVILLE   MOCLDY    79  68  69 S6        30.10F
BURLINGTON     MOCLDY    71  69  93 SE3       30.10F
LAURINBURG     MOCLDY    76  68  76 SW6       30.11S HAZE
$$

NCZ011-015-027-028-043-044-047-080-103-060400-
NORTHEASTERN NORTH CAROLINA

CITY           SKY/WX    TMP DP  RH WIND       PRES   REMARKS
ROCKY MT-WILSO CLOUDY    74  71  91 NW9       30.13R
GREENVILLE     CLOUDY    81  73  78 SW9       30.13S
WASHINGTON     PTCLDY    78  73  84 S6        30.13S
ELIZABETH CITY HAZE      79  72  79 S7        30.12R VSB 3/4
MANTEO         CLEAR     79  75  87 SW12      30.14R
CAPE HATTERAS  CLEAR     77  74  90 SW9       30.16R
$$

NCZ078-087-090-091-093-098-101-060400-
SOUTHEASTERN NORTH CAROLINA

CITY           SKY/WX    TMP DP  RH WIND       PRES   REMARKS
LUMBERTON      MOCLDY    76  69  79 S3        30.10F
GOLDSBORO      NOT AVBL
KINSTON        MOCLDY    80  71  74 S8        30.12F
KENANSVILLE    PTCLDY    77  70  78 CALM      30.13S
NEW BERN       PTCLDY    78  74  87 S6        30.14R
CHERRY POINT   PTCLDY    79  74  84 SW8       30.15R
BEAUFORT       PTCLDY    80  76  87 S14       30.14S
JACKSONVILLE   PTCLDY    77  72  84 S5        30.12F
WILMINGTON     PTCLDY    79  74  84 S9        30.13S
$$



USA.gov is the U.S. government's official web portal to all federal, state and local government web resources and services.